Location: Newark
(35.5300°N, 14.3000°E)
Time: 08:06:39
(UTC+00:00)

Explorer 7 - All Passes

Search period start: 15 November 2019 00:00
Search period end: 25 November 2019 00:00
Orbit: 485 x 680 km, 50.3° (Epoch: 14 November)

Date Brightness Start Highest point End Pass type
(mag) Time Alt. Az. Time Alt. Az. Time Alt. Az.
15 Nov - 00:25:52 10° WSW 00:30:23 56° NW 00:34:39 10° NE night (unlit)
15 Nov - 02:08:58 10° WNW 02:11:37 16° NNW 02:14:11 10° NNE visible
15 Nov - 03:53:18 10° N 03:53:37 10° N 03:53:56 10° N visible
15 Nov - 05:32:33 10° NNW 05:35:29 19° NNE 05:38:19 10° ENE daylight
15 Nov - 07:12:30 10° NW 07:16:21 75° SW 07:20:05 10° SE daylight
15 Nov - 22:50:33 10° SSW 22:54:52 37° SE 22:59:00 10° ENE night (unlit)
16 Nov - 00:31:12 10° W 00:35:26 36° NNW 00:39:28 10° NE night (unlit)
16 Nov - 02:14:58 10° NW 02:16:56 13° NNW 02:18:52 10° NNE visible
16 Nov - 03:57:48 10° N 03:59:01 11° N 04:00:13 10° NNE visible
16 Nov - 05:37:14 10° NNW 05:40:41 27° NNE 05:43:59 10° E daylight
16 Nov - 07:17:37 10° WNW 07:21:14 39° SW 07:24:44 10° SSE daylight
16 Nov - 22:55:06 10° SW 22:59:45 64° SE 23:04:10 10° ENE night (unlit)
17 Nov - 00:36:46 10° W 00:40:34 26° NNW 00:44:13 10° NNE night (unlit)
17 Nov - 02:20:59 10° NNW 02:22:19 11° N 02:23:37 10° N visible
17 Nov - 04:02:24 10° NNW 04:04:23 13° NNE 04:06:19 10° NE visible
17 Nov - 05:42:00 10° NW 05:45:47 42° NE 05:49:26 10° ESE daylight
17 Nov - 07:23:04 10° W 07:26:02 21° SW 07:28:56 10° S daylight
17 Nov - 21:21:39 10° SSE 21:24:29 16° SE 21:27:16 10° E night (unlit)
17 Nov - 22:59:58 10° SW 23:04:42 79° NW 23:09:10 10° NE night (unlit)
18 Nov - 00:42:30 10° WNW 00:45:47 19° NNW 00:48:56 10° NNE night (unlit)
18 Nov - 02:26:47 10° NNW 02:27:43 11° N 02:28:38 10° N visible
18 Nov - 04:07:02 10° NNW 04:09:42 17° NNE 04:12:17 10° ENE visible
18 Nov - 05:46:51 10° NW 05:50:49 74° NE 05:54:36 10° SE daylight
18 Nov - 07:29:27 10° WSW 07:30:46 11° SW 07:32:04 10° SSW daylight
18 Nov - 21:25:16 10° S 21:29:16 27° SE 21:33:08 10° ENE night (unlit)
18 Nov - 23:05:08 10° WSW 23:09:42 49° NW 23:14:02 10° NE night (unlit)
19 Nov - 00:48:23 10° NW 00:51:03 15° NNW 00:53:38 10° NNE night (unlit)
19 Nov - 02:31:57 10° NNW 02:33:07 11° N 02:34:16 10° NNE visible
19 Nov - 04:11:41 10° NNW 04:14:57 22° NNE 04:18:04 10° ENE visible
19 Nov - 05:51:50 10° WNW 05:55:45 61° SW 05:59:29 10° SE daylight
19 Nov - 21:29:32 10° SSW 21:34:06 45° SE 21:38:29 10° ENE night (unlit)
19 Nov - 23:10:32 10° W 23:14:47 33° NNW 23:18:50 10° NE night (unlit)
20 Nov - 00:54:21 10° NW 00:56:24 13° NNW 00:58:23 10° NNE night (unlit)
20 Nov - 02:36:44 10° NNW 02:38:30 12° N 02:40:14 10° NE visible
20 Nov - 04:16:25 10° NW 04:20:07 32° NNE 04:23:39 10° E visible
20 Nov - 05:57:02 10° WNW 06:00:36 32° SW 06:04:01 10° SSE daylight
20 Nov - 19:57:47 10° SE 19:58:57 11° SE 20:00:06 10° ESE night (unlit)
20 Nov - 21:34:12 10° SW 21:39:00 76° SE 21:43:35 10° NE night (unlit)
20 Nov - 23:16:08 10° W 23:19:56 24° NNW 23:23:36 10° NNE night (unlit)
21 Nov - 01:00:13 10° NNW 01:01:47 12° N 01:03:18 10° NNE night (unlit)
21 Nov - 02:41:26 10° NNW 02:43:52 15° NNE 02:46:13 10° NE visible
21 Nov - 04:21:12 10° NW 04:25:13 51° NE 04:29:00 10° ESE visible
21 Nov - 06:02:38 10° W 06:05:22 18° SW 06:08:01 10° S daylight
21 Nov - 20:00:16 10° S 20:03:41 19° SE 20:07:01 10° E night (unlit)
21 Nov - 21:39:10 10° WSW 21:43:57 68° NW 21:48:32 10° NE night (unlit)
21 Nov - 23:21:54 10° WNW 23:25:10 18° NNW 23:28:19 10° NNE night (unlit)
22 Nov - 01:05:47 10° NNW 01:07:11 11° N 01:08:33 10° NNE night (unlit)
22 Nov - 02:46:07 10° NNW 02:49:10 19° NNE 02:52:05 10° ENE visible
22 Nov - 04:26:06 10° NW 04:30:12 88° NE 04:34:05 10° SE visible
22 Nov - 20:04:10 10° SSW 20:08:27 32° SE 20:12:39 10° ENE night (unlit)
22 Nov - 21:44:23 10° WSW 21:48:59 44° NNW 21:53:23 10° NE night (unlit)
22 Nov - 23:27:47 10° NW 23:30:28 15° NNW 23:33:04 10° NNE night (unlit)
23 Nov - 01:10:54 10° NNW 01:12:35 12° N 01:14:14 10° NNE night (unlit)
23 Nov - 02:50:49 10° NNW 02:54:23 26° NNE 02:57:46 10° E visible
23 Nov - 04:31:08 10° WNW 04:35:07 50° SW 04:38:51 10° SSE visible
23 Nov - 20:08:34 10° SSW 20:13:18 54° SE 20:17:54 10° ENE night (unlit)
23 Nov - 21:49:51 10° W 21:54:05 30° NNW 21:58:10 10° NNE night (unlit)
23 Nov - 23:33:41 10° NW 23:35:49 13° N 23:37:55 10° NNE night (unlit)
24 Nov - 01:15:44 10° NNW 01:17:59 14° NNE 01:20:09 10° NE night (unlit)
24 Nov - 02:55:34 10° NW 02:59:32 38° NNE 03:03:16 10° ESE visible
24 Nov - 04:36:26 10° WNW 04:39:55 27° SW 04:43:15 10° S visible
24 Nov - 18:35:46 10° SSE 18:38:06 13° SE 18:40:26 10° E night (unlit)
24 Nov - 20:13:20 10° SW 20:18:13 88° SE 20:22:56 10° NE night (unlit)
24 Nov - 21:55:30 10° WNW 21:59:16 23° NNW 22:02:56 10° NNE night (unlit)
24 Nov - 23:39:26 10° NNW 23:41:13 12° N 23:42:58 10° NNE night (unlit)
